Showing default

ICEYE-X36, 59103

Orbit data source: Space-Track

ICEYE-X36, 59103 is a payload satellite owned by ICEYE US (US) in SSO that was launched on Mon, 04 Mar 2024 UTC via an FALCON 9 launch vehicle from the Air Force Western Test Range (AFWTR). Payload-class satellites include a variety of spacecraft equipped with specific instruments for various scientific and technological missions. These include communications satellites like Starlink; space stations such as the ISS; scientific satellites like the Hubble; Earth observation satellites from companies like Planet Labs, Umbra, and HawkEye 360; GPS; miniature CubeSats for education and research; and military/defense satellites.

Loading next visibility...
Identifier
59103, 2024-043F
Orbit
SSO
Country
Flag of USUS
Related business
Manufacturer
ICEYE US
Mission
Operational Commercial Radar Imaging
Bus & Motor
ICEYE, Unknown motor
Mass
90 kg wet, 89 kg dry
Launch date (UTC)
2024-03-04 (2 years ago)
Launch vehicle
FALCON 9
Launch site
Air Force Western Test Range (AFWTR)
Object type
Payload
Rocket body
Debris
Shape & HBR
Box + 1 Pan, 1.6 m
Radar Cross Section
0.825 m², Medium (>0.1 m² and < 1m²)

Expand to show TLE details & history
Last TLE update: 6 days ago

TLE from 6 days ago
0 ICEYE-X36
1 59103U 24043F   26155.16862524  .00004594  00000-0  31303-3 0  9999
2 59103  97.8362 293.0128 0006097  21.0151 339.1325 15.06765219123185
Epoch: 2026-06-04T04:02Z
TLE epoch observation values (Epoch: 2026-06-04T04:02:49.220Z)
Latitude
-0.00006°
Longitude
-20.30903°
Altitude
545.207 km
Speed
7.592 km/s
True Right ascension
19h 32m 03s
True Declination
0° 00' 00"
Sunlit
Object was in full shadow at epoch
Visualization orbit readout
Latitude
Unknown
Longitude
Unknown
Altitude
Unknown
Speed
Unknown
Apparent Right ascension
Unknown
Apparent Declination
Unknown
Sunlit
N/A
Visualization observer readout
Local Sidereal Time
13:39:24
Azimuth
Unknown
Elevation
Unknown
Doppler factor
Unknown
Orbital elements
Apogee altitude
547.315 km
Perigee altitude
538.875 km
Semi-major axis
6,921.232 km
Eccentricity
0.00061
Inclination
97.8362°
RAAN
293.0128°
Arg. of periapsis
21.0151°
True anomaly
339.1076°
Mean anomaly
339.1325°
Eccentric anomaly
339.12005°
Mean motion
3.76936 °/min
Orbital period
95.51 mins
BSTAR
0.00031303
Loading maneuver chart data...
Computing Atmospheric mass density...
Loading historical data...
Loading historical data...
Loading historical data...
Loading historical data...
Loading historical data...
Loading historical data...
Loading historical data...

Documentation

Showing up to 5 results
|